Time,TemperatureF,DewpointF,PressureIn,WindDirection,WindDirectionDegrees,WindSpeedMPH,WindSpeedGustMPH,Humidity,HourlyPrecipIn,Conditions,Clouds,dailyrainin,SoftwareType,DateUTC
2013-07-15 00:03:00,78.6,65.0,30.19,ESE,121,0.0,0.0,63,0.00,,CLR,0.00,VWS V14.01,2013-07-15 05:03:00,
2013-07-15 00:08:00,78.6,65.0,30.19,ESE,121,0.0,0.0,63,0.00,,CLR,0.00,VWS V14.01,2013-07-15 05:08:00,
2013-07-15 00:13:00,78.6,65.0,30.19,SSE,156,0.0,0.0,63,0.00,,CLR,0.00,VWS V14.01,2013-07-15 05:13:00,
2013-07-15 00:18:00,78.4,64.8,30.19,SSE,149,0.0,0.0,63,0.00,,CLR,0.00,VWS V14.01,2013-07-15 05:18:00,
2013-07-15 00:24:00,78.6,65.0,30.19,SE,130,0.0,0.0,63,0.00,,CLR,0.00,VWS V14.01,2013-07-15 05:24:00,
2013-07-15 00:29:00,78.6,65.0,30.19,SE,138,0.0,0.0,63,0.00,,CLR,0.00,VWS V14.01,2013-07-15 05:29:00,
2013-07-15 00:34:00,78.6,65.0,30.19,SE,141,0.0,0.0,63,0.00,,CLR,0.00,VWS V14.01,2013-07-15 05:34:00,
2013-07-15 00:39:00,78.4,64.8,30.19,SE,137,0.0,0.0,63,0.00,,CLR,0.00,VWS V14.01,2013-07-15 05:39:00,
2013-07-15 00:44:00,78.4,64.8,30.19,ESE,108,0.0,0.0,63,0.00,,CLR,0.00,VWS V14.01,2013-07-15 05:44:00,
2013-07-15 00:49:00,78.4,64.8,30.19,ESE,117,0.0,0.0,63,0.00,,CLR,0.00,VWS V14.01,2013-07-15 05:49:00,
2013-07-15 00:54:00,78.4,64.8,30.19,East,97,0.0,0.0,63,0.00,,CLR,0.00,VWS V14.01,2013-07-15 05:54:00,
2013-07-15 00:59:00,78.3,64.6,30.19,SE,143,0.0,0.0,63,0.00,,CLR,0.00,VWS V14.01,2013-07-15 05:59:00,
2013-07-15 01:04:00,78.3,64.6,30.19,SE,125,0.0,0.0,63,0.00,,CLR,0.00,VWS V14.01,2013-07-15 06:04:00,
2013-07-15 01:10:00,78.3,64.6,30.19,SE,125,0.0,0.0,63,0.00,,CLR,0.00,VWS V14.01,2013-07-15 06:10:00,
2013-07-15 01:15:00,78.1,64.5,30.19,SSE,154,0.0,0.0,63,0.00,,CLR,0.00,VWS V14.01,2013-07-15 06:15:00,
2013-07-15 01:20:00,78.1,64.5,30.19,SSE,159,0.0,0.0,63,0.00,,CLR,0.00,VWS V14.01,2013-07-15 06:20:00,
2013-07-15 01:25:00,78.1,64.5,30.19,SSE,159,0.0,0.0,63,0.00,,CLR,0.00,VWS V14.01,2013-07-15 06:25:00,
2013-07-15 01:30:00,78.1,64.5,30.19,SSE,158,0.0,0.0,63,0.00,,CLR,0.00,VWS V14.01,2013-07-15 06:30:00,
2013-07-15 01:35:00,78.1,64.5,30.16,SE,130,0.0,0.0,63,0.00,,CLR,0.00,VWS V14.01,2013-07-15 06:35:00,
2013-07-15 01:40:00,78.3,64.6,30.16,SSE,147,0.0,0.0,63,0.00,,CLR,0.00,VWS V14.01,2013-07-15 06:40:00,
2013-07-15 01:45:00,78.3,64.6,30.16,SSE,161,0.0,0.0,63,0.00,,CLR,0.00,VWS V14.01,2013-07-15 06:45:00,
2013-07-15 01:50:00,78.3,64.6,30.19,South,171,0.0,0.0,63,0.00,,CLR,0.00,VWS V14.01,2013-07-15 06:50:00,
2013-07-15 01:55:00,78.3,64.6,30.19,South,174,3.1,6.3,63,0.00,,CLR,0.00,VWS V14.01,2013-07-15 06:55:00,
2013-07-15 02:00:00,78.4,64.8,30.19,SSE,148,0.0,4.0,63,0.00,,CLR,0.00,VWS V14.01,2013-07-15 07:00:00,
2013-07-15 02:05:00,78.4,64.8,30.19,SE,146,0.0,0.0,63,0.00,,CLR,0.00,VWS V14.01,2013-07-15 07:05:00,
2013-07-15 02:10:00,78.3,64.6,30.19,SE,131,0.0,3.6,63,0.00,,CLR,0.00,VWS V14.01,2013-07-15 07:10:00,
2013-07-15 02:15:00,78.1,64.5,30.19,SSE,154,0.0,0.0,63,0.00,,CLR,0.00,VWS V14.01,2013-07-15 07:15:00,
2013-07-15 02:20:00,78.1,64.5,30.19,SSE,163,0.0,0.0,63,0.00,,CLR,0.00,VWS V14.01,2013-07-15 07:20:00,
2013-07-15 02:25:00,77.9,64.3,30.19,South,183,0.0,0.0,63,0.00,,CLR,0.00,VWS V14.01,2013-07-15 07:25:00,
2013-07-15 02:30:00,77.7,64.1,30.19,South,183,0.0,0.0,63,0.00,,CLR,0.00,VWS V14.01,2013-07-15 07:30:00,
2013-07-15 02:35:00,77.5,64.0,30.19,South,173,0.0,0.0,63,0.00,,CLR,0.00,VWS V14.01,2013-07-15 07:35:00,
2013-07-15 02:40:00,77.5,64.0,30.19,ESE,122,0.0,0.0,63,0.00,,CLR,0.00,VWS V14.01,2013-07-15 07:40:00,
2013-07-15 02:45:00,77.4,63.8,30.19,ESE,120,0.0,0.0,63,0.00,,CLR,0.00,VWS V14.01,2013-07-15 07:45:00,
2013-07-15 02:50:00,77.2,63.6,30.19,ESE,120,0.0,0.0,63,0.00,,CLR,0.00,VWS V14.01,2013-07-15 07:50:00,
2013-07-15 02:55:00,77.0,63.5,30.19,SE,129,0.0,0.0,63,0.00,,CLR,0.00,VWS V14.01,2013-07-15 07:55:00,
2013-07-15 03:00:00,77.0,63.5,30.19,SE,129,0.0,0.0,63,0.00,,CLR,0.00,VWS V14.01,2013-07-15 08:00:00,
2013-07-15 03:05:00,76.8,63.3,30.19,ESE,123,0.0,0.0,63,0.00,,CLR,0.00,VWS V14.01,2013-07-15 08:05:00,
2013-07-15 03:10:00,76.8,63.3,30.19,NE,48,0.0,0.0,63,0.00,,CLR,0.00,VWS V14.01,2013-07-15 08:10:00,
2013-07-15 03:15:00,76.8,63.3,30.19,NE,42,0.0,0.0,63,0.00,,CLR,0.00,VWS V14.01,2013-07-15 08:15:00,
2013-07-15 03:20:00,76.8,63.3,30.19,North,357,0.0,0.0,63,0.00,,CLR,0.00,VWS V14.01,2013-07-15 08:20:00,
2013-07-15 03:25:00,76.6,63.1,30.19,NNE,20,0.0,0.0,63,0.00,,CLR,0.00,VWS V14.01,2013-07-15 08:25:00,
2013-07-15 03:30:00,76.5,62.9,30.19,NE,36,0.0,0.0,63,0.00,,CLR,0.00,VWS V14.01,2013-07-15 08:30:00,
2013-07-15 03:35:00,76.1,62.6,30.19,ENE,60,0.0,0.0,63,0.00,,CLR,0.00,VWS V14.01,2013-07-15 08:35:00,
2013-07-15 03:40:00,75.7,62.3,30.19,NNW,329,0.0,2.7,63,0.00,,CLR,0.00,VWS V14.01,2013-07-15 08:40:00,
2013-07-15 03:45:00,75.4,61.9,30.19,North,1,0.0,0.0,63,0.00,,CLR,0.00,VWS V14.01,2013-07-15 08:45:00,
2013-07-15 03:50:00,75.2,61.8,30.19,NNW,329,0.0,3.6,63,0.00,,CLR,0.00,VWS V14.01,2013-07-15 08:50:00,
2013-07-15 03:55:00,74.8,61.4,30.19,NE,38,0.0,4.0,63,0.00,,CLR,0.00,VWS V14.01,2013-07-15 08:55:00,
2013-07-15 04:00:00,74.8,65.8,30.19,North,9,0.0,0.0,74,0.00,,CLR,0.00,VWS V14.01,2013-07-15 09:00:00,
2013-07-15 04:05:00,74.7,65.6,30.19,North,1,0.0,0.0,74,0.00,,CLR,0.00,VWS V14.01,2013-07-15 09:05:00,
2013-07-15 04:10:00,74.5,65.5,30.19,NE,50,2.2,4.0,74,0.00,,CLR,0.00,VWS V14.01,2013-07-15 09:10:00,
2013-07-15 04:15:00,74.3,65.3,30.19,NNW,336,0.0,2.2,74,0.00,,CLR,0.00,VWS V14.01,2013-07-15 09:15:00,
2013-07-15 04:20:00,74.1,65.1,30.19,NE,52,0.0,0.0,74,0.00,,CLR,0.00,VWS V14.01,2013-07-15 09:20:00,
2013-07-15 04:25:00,73.9,64.9,30.19,NNW,327,0.0,0.0,74,0.00,,CLR,0.00,VWS V14.01,2013-07-15 09:25:00,
2013-07-15 04:30:00,73.8,64.8,30.19,ENE,68,0.0,0.0,74,0.00,,CLR,0.00,VWS V14.01,2013-07-15 09:30:00,
2013-07-15 04:35:00,73.8,66.1,30.19,NNE,25,0.0,0.0,77,0.00,,CLR,0.00,VWS V14.01,2013-07-15 09:35:00,
2013-07-15 04:40:00,73.6,65.9,30.19,NNE,25,0.0,0.0,77,0.00,,CLR,0.00,VWS V14.01,2013-07-15 09:40:00,
2013-07-15 04:45:00,73.6,65.9,30.19,North,10,0.0,0.0,77,0.00,,CLR,0.00,VWS V14.01,2013-07-15 09:45:00,
2013-07-15 04:50:00,73.4,65.8,30.19,North,10,0.0,0.0,77,0.00,,CLR,0.00,VWS V14.01,2013-07-15 09:50:00,
2013-07-15 04:55:00,73.4,65.8,30.19,NNE,14,0.0,0.0,77,0.00,,CLR,0.00,VWS V14.01,2013-07-15 09:55:00,
2013-07-15 05:00:00,73.2,66.9,30.19,NNE,30,0.0,0.0,80,0.00,,CLR,0.00,VWS V14.01,2013-07-15 10:00:00,
2013-07-15 05:05:00,73.0,66.7,30.19,NE,41,0.0,0.0,80,0.00,,CLR,0.00,VWS V14.01,2013-07-15 10:05:00,
2013-07-15 05:10:00,73.0,66.7,30.19,NNE,28,0.0,4.0,80,0.00,,CLR,0.00,VWS V14.01,2013-07-15 10:10:00,
2013-07-15 05:15:00,73.2,68.1,30.19,North,8,0.0,0.0,84,0.00,,CLR,0.00,VWS V14.01,2013-07-15 10:15:00,
2013-07-15 05:20:00,73.0,67.9,30.19,NE,42,0.0,4.0,84,0.00,,CLR,0.00,VWS V14.01,2013-07-15 10:20:00,
2013-07-15 05:25:00,73.0,67.9,30.19,North,0,0.0,0.0,84,0.00,,CLR,0.00,VWS V14.01,2013-07-15 10:25:00,
2013-07-15 05:30:00,73.0,67.9,30.19,NNE,27,0.0,3.6,84,0.00,,CLR,0.00,VWS V14.01,2013-07-15 10:30:00,
2013-07-15 05:35:00,73.0,69.1,30.19,ENE,64,0.0,5.8,88,0.00,,CLR,0.00,VWS V14.01,2013-07-15 10:35:00,
2013-07-15 05:40:00,73.0,69.1,30.19,NE,49,2.7,2.7,88,0.00,,CLR,0.00,VWS V14.01,2013-07-15 10:40:00,
2013-07-15 05:45:00,73.0,70.3,30.19,NNE,23,3.1,5.4,91,0.00,,CLR,0.00,VWS V14.01,2013-07-15 10:45:00,
2013-07-15 05:50:00,73.0,70.3,30.19,NE,39,2.2,5.8,91,0.00,,CLR,0.00,VWS V14.01,2013-07-15 10:50:00,
2013-07-15 05:55:00,73.0,71.4,30.19,NE,45,3.6,4.9,94,0.00,,CLR,0.00,VWS V14.01,2013-07-15 10:55:00,
2013-07-15 06:00:00,73.0,71.4,30.19,North,0,0.0,3.6,94,0.00,,CLR,0.00,VWS V14.01,2013-07-15 11:00:00,
2013-07-15 06:05:00,73.0,72.4,30.22,NNE,30,0.0,4.0,98,0.00,,CLR,0.00,VWS V14.01,2013-07-15 11:05:00,
2013-07-15 06:10:00,73.0,72.4,30.22,NE,50,4.0,4.0,98,0.00,,CLR,0.00,VWS V14.01,2013-07-15 11:10:00,
2013-07-15 06:15:00,73.0,72.4,30.22,NNE,24,0.0,6.3,98,0.00,,CLR,0.00,VWS V14.01,2013-07-15 11:15:00,
2013-07-15 06:20:00,73.0,73.1,30.22,NE,41,2.2,3.1,100,0.00,,CLR,0.00,VWS V14.01,2013-07-15 11:20:00,
2013-07-15 06:25:00,73.0,73.1,30.22,NE,54,4.0,4.0,100,0.00,,,0.00,VWS V14.01,2013-07-15 11:25:00,
2013-07-15 06:30:00,73.0,73.1,30.22,NE,50,2.7,4.0,100,0.00,,,0.00,VWS V14.01,2013-07-15 11:30:00,
2013-07-15 06:35:00,73.2,73.2,30.22,NNE,28,0.0,3.1,100,0.00,,,0.00,VWS V14.01,2013-07-15 11:35:00,
2013-07-15 06:40:00,73.4,73.4,30.22,NNE,28,0.0,0.0,100,0.00,,,0.00,VWS V14.01,2013-07-15 11:40:00,
2013-07-15 06:45:00,73.6,73.6,30.22,NNE,23,0.0,0.0,100,0.00,,SCT060,0.00,VWS V14.01,2013-07-15 11:45:00,
2013-07-15 06:50:00,73.6,73.6,30.22,NNE,23,0.0,0.0,100,0.00,,SCT060,0.00,VWS V14.01,2013-07-15 11:50:00,
2013-07-15 06:55:00,73.8,73.8,30.22,NNE,29,0.0,0.0,100,0.00,,SCT060,0.00,VWS V14.01,2013-07-15 11:55:00,
2013-07-15 07:00:00,73.9,73.9,30.22,NE,49,0.0,3.1,100,0.00,,SCT060,0.00,VWS V14.01,2013-07-15 12:00:00,
2013-07-15 07:05:00,74.1,74.1,30.22,NNE,33,0.0,3.6,100,0.00,,SCT060,0.00,VWS V14.01,2013-07-15 12:05:00,
2013-07-15 07:10:00,74.3,74.3,30.22,North,0,0.0,3.1,100,0.00,,SCT060,0.00,VWS V14.01,2013-07-15 12:10:00,
2013-07-15 07:15:00,74.5,74.5,30.22,NE,43,0.0,0.0,100,0.00,,SCT060,0.00,VWS V14.01,2013-07-15 12:15:00,
2013-07-15 07:20:00,74.7,74.7,30.22,North,7,0.0,3.1,100,0.00,,SCT060,0.00,VWS V14.01,2013-07-15 12:20:00,
2013-07-15 07:25:00,74.8,74.8,30.22,North,9,0.0,0.0,100,0.00,,SCT046,0.00,VWS V14.01,2013-07-15 12:25:00,
2013-07-15 07:30:00,75.2,75.2,30.22,NE,44,0.0,4.0,100,0.00,,SCT046,0.00,VWS V14.01,2013-07-15 12:30:00,
2013-07-15 07:35:00,75.4,75.4,30.22,NNE,20,0.0,0.0,100,0.00,,SCT046,0.00,VWS V14.01,2013-07-15 12:35:00,
2013-07-15 07:40:00,75.7,75.8,30.22,NE,37,0.0,3.6,100,0.00,,SCT046,0.00,VWS V14.01,2013-07-15 12:40:00,
2013-07-15 07:45:00,75.9,75.9,30.22,NNE,21,0.0,0.0,100,0.00,,CLR,0.00,VWS V14.01,2013-07-15 12:45:00,
2013-07-15 07:50:00,76.1,76.1,30.25,NE,47,0.0,0.0,100,0.00,,CLR,0.00,VWS V14.01,2013-07-15 12:50:00,
2013-07-15 07:55:00,76.1,75.5,30.25,NE,41,0.0,0.0,98,0.00,,CLR,0.00,VWS V14.01,2013-07-15 12:55:00,
2013-07-15 08:00:00,76.3,75.7,30.25,North,8,0.0,0.0,98,0.00,,CLR,0.00,VWS V14.01,2013-07-15 13:00:00,
2013-07-15 08:05:00,76.6,74.9,30.25,NNE,22,0.0,0.0,94,0.00,,CLR,0.00,VWS V14.01,2013-07-15 13:05:00,
2013-07-15 08:10:00,77.2,74.3,30.25,NNE,24,3.6,3.6,91,0.00,,CLR,0.00,VWS V14.01,2013-07-15 13:10:00,
2013-07-15 08:15:00,77.7,72.5,30.25,ENE,70,2.2,4.0,84,0.00,,CLR,0.00,VWS V14.01,2013-07-15 13:15:00,
2013-07-15 08:20:00,78.3,73.0,30.25,SE,140,2.7,3.1,84,0.00,,CLR,0.00,VWS V14.01,2013-07-15 13:20:00,
2013-07-15 08:25:00,78.6,72.1,30.25,ESE,115,0.0,2.7,80,0.00,,CLR,0.00,VWS V14.01,2013-07-15 13:25:00,
2013-07-15 08:30:00,78.6,69.4,30.25,NE,41,0.0,4.0,74,0.00,,CLR,0.00,VWS V14.01,2013-07-15 13:30:00,
2013-07-15 08:35:00,78.4,69.3,30.25,NE,37,0.0,3.6,74,0.00,,CLR,0.00,VWS V14.01,2013-07-15 13:35:00,
2013-07-15 08:40:00,78.4,69.3,30.25,East,83,0.0,2.7,74,0.00,,CLR,0.00,VWS V14.01,2013-07-15 13:40:00,
2013-07-15 08:45:00,79.0,68.4,30.25,SE,129,0.0,0.0,70,0.00,,SCT045,0.00,VWS V14.01,2013-07-15 13:45:00,
2013-07-15 08:50:00,79.7,69.1,30.25,NE,34,0.0,4.0,70,0.00,,SCT045,0.00,VWS V14.01,2013-07-15 13:50:00,
2013-07-15 08:55:00,80.4,69.8,30.25,NNE,27,0.0,2.7,70,0.00,,SCT045,0.00,VWS V14.01,2013-07-15 13:55:00,
2013-07-15 09:00:00,81.1,68.9,30.25,East,83,0.0,0.0,66,0.00,,SCT045,0.00,VWS V14.01,2013-07-15 14:00:00,
2013-07-15 09:05:00,81.7,69.4,30.25,ENE,71,0.0,2.7,66,0.00,,SCT045,0.00,VWS V14.01,2013-07-15 14:05:00,
2013-07-15 09:10:00,82.6,70.3,30.25,North,357,0.0,0.0,66,0.00,,SCT045,0.00,VWS V14.01,2013-07-15 14:10:00,
2013-07-15 09:15:00,83.5,66.2,30.25,East,90,2.7,4.0,56,0.00,,SCT045,0.00,VWS V14.01,2013-07-15 14:15:00,
2013-07-15 09:20:00,84.0,66.7,30.25,NE,47,3.1,3.6,56,0.00,,SCT045,0.00,VWS V14.01,2013-07-15 14:20:00,
2013-07-15 09:25:00,84.0,66.7,30.25,East,99,0.0,4.0,56,0.00,,BKN075,0.00,VWS V14.01,2013-07-15 14:25:00,
2013-07-15 09:30:00,84.4,67.0,30.25,NNE,25,0.0,0.0,56,0.00,,BKN075,0.00,VWS V14.01,2013-07-15 14:30:00,
2013-07-15 09:35:00,84.6,67.2,30.25,ESE,105,0.0,4.0,56,0.00,,BKN075,0.00,VWS V14.01,2013-07-15 14:35:00,
2013-07-15 09:40:00,85.1,67.7,30.25,SSE,155,0.0,0.0,56,0.00,,BKN075,0.00,VWS V14.01,2013-07-15 14:40:00,
2013-07-15 09:45:00,85.6,68.2,30.25,SSE,155,0.0,0.0,56,0.00,,BKN075,0.00,VWS V14.01,2013-07-15 14:45:00,
2013-07-15 09:50:00,86.2,68.7,30.25,SW,217,0.0,0.0,56,0.00,,BKN075,0.00,VWS V14.01,2013-07-15 14:50:00,
2013-07-15 09:55:00,86.5,69.0,30.25,ENE,59,0.0,3.6,56,0.00,,BKN075,0.00,VWS V14.01,2013-07-15 14:55:00,
2013-07-15 10:00:00,86.7,69.2,30.25,SE,141,0.0,3.6,56,0.00,,BKN075,0.00,VWS V14.01,2013-07-15 15:00:00,
2013-07-15 10:05:00,86.4,68.8,30.25,SSE,149,0.0,0.0,56,0.00,,SCT085,0.00,VWS V14.01,2013-07-15 15:05:00,
2013-07-15 10:10:00,86.5,69.0,30.25,SW,218,0.0,0.0,56,0.00,,SCT085,0.00,VWS V14.01,2013-07-15 15:10:00,
2013-07-15 10:15:00,87.1,69.5,30.25,SE,136,0.0,0.0,56,0.00,,SCT085,0.00,VWS V14.01,2013-07-15 15:15:00,
2013-07-15 10:21:00,87.6,70.0,30.25,SE,129,0.0,0.0,56,0.00,,SCT085,0.00,VWS V14.01,2013-07-15 15:21:00,
2013-07-15 10:26:00,87.8,68.3,30.25,North,357,0.0,0.0,52,0.00,,SCT085,0.00,VWS V14.01,2013-07-15 15:26:00,
2013-07-15 10:31:00,87.8,68.3,30.25,ESE,104,3.1,3.1,52,0.00,,SCT085,0.00,VWS V14.01,2013-07-15 15:31:00,
2013-07-15 10:36:00,88.2,68.6,30.25,SE,131,3.6,3.6,52,0.00,,SCT085,0.00,VWS V14.01,2013-07-15 15:36:00,
2013-07-15 10:41:00,88.5,68.9,30.25,ESE,118,0.0,0.0,52,0.00,,SCT075,0.00,VWS V14.01,2013-07-15 15:41:00,
2013-07-15 10:46:00,88.5,68.9,30.25,SW,217,0.0,0.0,52,0.00,,SCT075,0.00,VWS V14.01,2013-07-15 15:46:00,
2013-07-15 10:51:00,88.7,69.1,30.25,SE,137,0.0,3.6,52,0.00,,SCT075,0.00,VWS V14.01,2013-07-15 15:51:00,
2013-07-15 10:57:00,89.1,69.4,30.25,SE,138,0.0,0.0,52,0.00,,SCT075,0.00,VWS V14.01,2013-07-15 15:57:00,
2013-07-15 11:02:00,89.4,69.8,30.25,North,353,0.0,0.0,52,0.00,,SCT075,0.00,VWS V14.01,2013-07-15 16:02:00,
2013-07-15 11:07:00,89.8,70.1,30.25,NE,42,0.0,0.0,52,0.00,,SCT075,0.00,VWS V14.01,2013-07-15 16:07:00,
2013-07-15 11:12:00,90.0,70.3,30.25,SSW,196,0.0,0.0,52,0.00,,SCT075,0.00,VWS V14.01,2013-07-15 16:12:00,
2013-07-15 11:17:00,89.6,69.9,30.25,SSE,155,2.7,4.0,52,0.00,,SCT075,0.00,VWS V14.01,2013-07-15 16:17:00,
2013-07-15 11:22:00,89.2,69.6,30.25,SSW,201,0.0,0.0,52,0.00,,SCT080,0.00,VWS V14.01,2013-07-15 16:22:00,
2013-07-15 11:27:00,89.2,69.6,30.25,ENE,74,0.0,2.7,52,0.00,,SCT080,0.00,VWS V14.01,2013-07-15 16:27:00,
2013-07-15 11:32:00,89.1,69.4,30.25,SSW,208,0.0,0.0,52,0.00,,SCT080,0.00,VWS V14.01,2013-07-15 16:32:00,
2013-07-15 11:37:00,89.1,69.4,30.25,SE,127,0.0,4.0,52,0.00,,SCT080,0.00,VWS V14.01,2013-07-15 16:37:00,
2013-07-15 11:43:00,89.6,69.9,30.25,ENE,61,0.0,0.0,52,0.00,,OVC080,0.00,VWS V14.01,2013-07-15 16:43:00,
2013-07-15 11:48:00,90.5,70.8,30.25,NE,42,0.0,4.0,52,0.00,,OVC080,0.00,VWS V14.01,2013-07-15 16:48:00,
2013-07-15 11:53:00,90.9,71.1,30.25,SW,221,0.0,3.6,52,0.00,,OVC080,0.00,VWS V14.01,2013-07-15 16:53:00,
2013-07-15 11:58:00,90.7,70.9,30.25,SW,223,0.0,0.0,52,0.00,,OVC080,0.00,VWS V14.01,2013-07-15 16:58:00,
2013-07-15 12:03:00,90.7,70.9,30.25,SW,228,2.2,5.4,52,0.00,,OVC080,0.00,VWS V14.01,2013-07-15 17:03:00,
2013-07-15 12:08:00,90.7,70.9,30.25,NNE,31,0.0,4.0,52,0.00,,OVC080,0.00,VWS V14.01,2013-07-15 17:08:00,
2013-07-15 12:13:00,91.0,71.3,30.25,ESE,107,0.0,4.0,52,0.00,,OVC080,0.00,VWS V14.01,2013-07-15 17:13:00,
2013-07-15 12:18:00,90.9,71.1,30.25,ENE,66,0.0,0.0,52,0.00,,OVC080,0.00,VWS V14.01,2013-07-15 17:18:00,
2013-07-15 12:23:00,91.0,71.3,30.25,ESE,112,0.0,0.0,52,0.00,,OVC080,0.00,VWS V14.01,2013-07-15 17:23:00,
2013-07-15 12:29:00,91.0,71.3,30.25,SSE,160,0.0,4.0,52,0.00,,OVC090,0.00,VWS V14.01,2013-07-15 17:29:00,
2013-07-15 12:34:00,90.5,70.8,30.25,NE,53,2.2,4.9,52,0.00,,OVC090,0.00,VWS V14.01,2013-07-15 17:34:00,
2013-07-15 12:39:00,90.1,70.4,30.25,NE,45,0.0,0.0,52,0.00,,OVC090,0.00,VWS V14.01,2013-07-15 17:39:00,
2013-07-15 12:44:00,89.2,69.6,30.25,East,93,4.0,5.8,52,0.00,,OVC090,0.00,VWS V14.01,2013-07-15 17:44:00,
2013-07-15 12:49:00,89.1,69.4,30.25,NNE,26,2.2,3.6,52,0.00,,OVC090,0.00,VWS V14.01,2013-07-15 17:49:00,
2013-07-15 12:54:00,89.6,69.9,30.25,NE,52,0.0,6.3,52,0.00,,OVC090,0.00,VWS V14.01,2013-07-15 17:54:00,
2013-07-15 12:59:00,89.2,69.6,30.25,NE,51,0.0,5.8,52,0.00,,OVC090,0.00,VWS V14.01,2013-07-15 17:59:00,
2013-07-15 13:04:00,88.9,69.3,30.25,North,0,0.0,2.2,52,0.00,,-RA,0.00,VWS V14.01,2013-07-15 18:04:00,
2013-07-15 13:09:00,88.9,69.3,30.25,East,83,0.0,0.0,52,0.00,,-RA,0.00,VWS V14.01,2013-07-15 18:09:00,
2013-07-15 13:15:00,88.7,69.1,30.25,NNW,340,0.0,2.7,52,0.00,,-RA,0.00,VWS V14.01,2013-07-15 18:15:00,
2013-07-15 13:20:00,88.9,69.3,30.25,ESE,116,0.0,3.6,52,0.00,,OVC100,0.00,VWS V14.01,2013-07-15 18:20:00,
2013-07-15 13:25:00,88.9,69.3,30.25,NNW,343,0.0,4.0,52,0.00,,OVC100,0.00,VWS V14.01,2013-07-15 18:25:00,
2013-07-15 13:30:00,89.6,69.9,30.25,North,357,5.8,6.3,52,0.00,,OVC100,0.00,VWS V14.01,2013-07-15 18:30:00,
2013-07-15 13:35:00,90.1,70.4,30.25,ENE,63,0.0,0.0,52,0.00,,OVC100,0.00,VWS V14.01,2013-07-15 18:35:00,
2013-07-15 13:40:00,89.8,70.1,30.25,NW,322,3.6,3.6,52,0.00,,OVC090,0.00,VWS V14.01,2013-07-15 18:40:00,
2013-07-15 13:45:00,88.9,69.3,30.25,North,0,4.0,5.4,52,0.00,,OVC090,0.00,VWS V14.01,2013-07-15 18:45:00,
2013-07-15 13:51:00,87.8,68.3,30.25,North,0,3.1,5.4,52,0.00,,OVC090,0.00,VWS V14.01,2013-07-15 18:51:00,
2013-07-15 13:56:00,87.1,69.5,30.25,NNW,339,5.4,6.7,56,0.00,,OVC090,0.00,VWS V14.01,2013-07-15 18:56:00,
2013-07-15 14:01:00,86.7,69.2,30.25,NNW,334,3.1,3.6,56,0.00,,OVC090,0.00,VWS V14.01,2013-07-15 19:01:00,
2013-07-15 14:06:00,86.0,68.5,30.25,NW,316,0.0,2.2,56,0.00,,OVC090,0.00,VWS V14.01,2013-07-15 19:06:00,
2013-07-15 14:11:00,85.3,67.8,30.25,NNW,327,0.0,0.0,56,0.00,,OVC110,0.00,VWS V14.01,2013-07-15 19:11:00,
2013-07-15 14:16:00,85.1,67.7,30.25,NW,325,0.0,0.0,56,0.00,,OVC110,0.00,VWS V14.01,2013-07-15 19:16:00,
2013-07-15 14:21:00,85.3,67.8,30.25,North,0,0.0,0.0,56,0.00,,OVC110,0.00,VWS V14.01,2013-07-15 19:21:00,
2013-07-15 14:26:00,86.4,68.8,30.25,North,350,0.0,3.1,56,0.00,,OVC110,0.00,VWS V14.01,2013-07-15 19:26:00,
2013-07-15 14:31:00,87.4,69.8,30.25,ENE,72,0.0,0.0,56,0.00,,OVC110,0.00,VWS V14.01,2013-07-15 19:31:00,
2013-07-15 14:37:00,87.4,69.8,30.25,North,0,0.0,0.0,56,0.00,,OVC110,0.00,VWS V14.01,2013-07-15 19:37:00,
2013-07-15 14:42:00,87.3,69.7,30.25,ENE,66,0.0,4.0,56,0.00,,OVC110,0.00,VWS V14.01,2013-07-15 19:42:00,
2013-07-15 14:47:00,87.1,69.5,30.22,NNE,30,4.0,7.2,56,0.00,,OVC110,0.00,VWS V14.01,2013-07-15 19:47:00,
2013-07-15 14:53:00,86.2,68.7,30.22,NE,54,2.2,5.4,56,0.00,,OVC110,0.00,VWS V14.01,2013-07-15 19:53:00,
2013-07-15 14:58:00,85.1,67.7,30.22,North,357,3.1,5.8,56,0.00,,OVC110,0.00,VWS V14.01,2013-07-15 19:58:00,
2013-07-15 15:03:00,83.7,66.3,30.22,NE,42,0.0,3.1,56,0.00,,BKN110,0.00,VWS V14.01,2013-07-15 20:03:00,
2013-07-15 15:08:00,82.6,65.3,30.22,NNW,327,0.0,0.0,56,0.00,,BKN110,0.00,VWS V14.01,2013-07-15 20:08:00,
2013-07-15 15:13:00,82.2,66.7,30.22,North,353,0.0,0.0,60,0.00,,BKN110,0.00,VWS V14.01,2013-07-15 20:13:00,
2013-07-15 15:18:00,82.9,65.7,30.22,NNW,327,4.0,4.0,56,0.00,,BKN110,0.00,VWS V14.01,2013-07-15 20:18:00,
2013-07-15 15:23:00,84.4,70.4,30.22,NNW,335,0.0,0.0,63,0.00,,SCT120,0.00,VWS V14.01,2013-07-15 20:23:00,
2013-07-15 15:28:00,86.2,72.1,30.22,North,0,0.0,5.4,63,0.00,,SCT120,0.00,VWS V14.01,2013-07-15 20:28:00,
2013-07-15 15:34:00,87.4,69.8,30.22,NE,49,0.0,4.9,56,0.00,,SCT120,0.00,VWS V14.01,2013-07-15 20:34:00,
2013-07-15 15:39:00,88.5,68.9,30.22,NNE,32,0.0,4.9,52,0.00,,SCT120,0.00,VWS V14.01,2013-07-15 20:39:00,
2013-07-15 15:44:00,89.6,69.9,30.22,North,357,4.0,6.3,52,0.00,,CLR,0.00,VWS V14.01,2013-07-15 20:44:00,
2013-07-15 15:49:00,90.3,70.6,30.22,North,357,2.7,6.3,52,0.00,,CLR,0.00,VWS V14.01,2013-07-15 20:49:00,
2013-07-15 15:54:00,90.3,70.6,30.22,ENE,58,2.2,5.4,52,0.00,,CLR,0.00,VWS V14.01,2013-07-15 20:54:00,
2013-07-15 16:00:00,90.5,70.8,30.22,North,353,3.6,4.9,52,0.00,,CLR,0.00,VWS V14.01,2013-07-15 21:00:00,
2013-07-15 16:05:00,90.3,70.6,30.22,ENE,74,0.0,6.3,52,0.00,,BKN120,0.00,VWS V14.01,2013-07-15 21:05:00,
2013-07-15 16:10:00,90.0,70.3,30.22,NNW,330,0.0,0.0,52,0.00,,BKN120,0.00,VWS V14.01,2013-07-15 21:10:00,
2013-07-15 16:15:00,90.7,70.9,30.22,NNW,343,5.8,5.8,52,0.00,,BKN120,0.00,VWS V14.01,2013-07-15 21:15:00,
2013-07-15 16:20:00,91.2,71.4,30.22,ENE,69,3.1,3.1,52,0.00,,BKN110,0.00,VWS V14.01,2013-07-15 21:20:00,
2013-07-15 16:25:00,91.6,69.7,30.22,NNE,28,2.2,2.7,49,0.00,,BKN110,0.00,VWS V14.01,2013-07-15 21:25:00,
2013-07-15 16:30:00,92.1,70.2,30.19,WNW,303,5.8,6.3,49,0.00,,BKN110,0.00,VWS V14.01,2013-07-15 21:30:00,
2013-07-15 16:35:00,92.7,70.7,30.19,NE,39,2.7,2.7,49,0.00,,BKN110,0.00,VWS V14.01,2013-07-15 21:35:00,
2013-07-15 16:40:00,92.8,70.9,30.19,NE,45,2.2,5.4,49,0.00,,OVC110,0.00,VWS V14.01,2013-07-15 21:40:00,
2013-07-15 16:46:00,92.8,70.9,30.19,SSE,154,4.0,5.4,49,0.00,,OVC110,0.00,VWS V14.01,2013-07-15 21:46:00,
2013-07-15 16:51:00,91.9,70.1,30.19,ESE,114,4.0,4.0,49,0.00,,OVC110,0.00,VWS V14.01,2013-07-15 21:51:00,
2013-07-15 16:56:00,91.2,71.4,30.19,SE,136,0.0,2.2,52,0.00,,OVC110,0.00,VWS V14.01,2013-07-15 21:56:00,
2013-07-15 17:01:00,90.9,71.1,30.19,SE,125,0.0,5.4,52,0.00,,SCT044,0.00,VWS V14.01,2013-07-15 22:01:00,
2013-07-15 17:06:00,91.0,71.3,30.19,NE,36,0.0,4.9,52,0.00,,SCT044,0.00,VWS V14.01,2013-07-15 22:06:00,
2013-07-15 17:12:00,91.2,71.4,30.19,NE,34,0.0,3.6,52,0.00,,SCT044,0.00,VWS V14.01,2013-07-15 22:12:00,
2013-07-15 17:17:00,91.6,69.7,30.19,South,174,3.6,4.0,49,0.00,,SCT044,0.00,VWS V14.01,2013-07-15 22:17:00,
2013-07-15 17:22:00,91.6,69.7,30.19,NNE,23,0.0,3.6,49,0.00,,SCT100,0.00,VWS V14.01,2013-07-15 22:22:00,
2013-07-15 17:27:00,91.8,69.9,30.19,North,1,2.7,6.3,49,0.00,,SCT100,0.00,VWS V14.01,2013-07-15 22:27:00,
2013-07-15 17:32:00,91.4,69.6,30.19,SE,128,3.6,3.6,49,0.00,,SCT100,0.00,VWS V14.01,2013-07-15 22:32:00,
2013-07-15 17:38:00,90.5,70.8,30.19,ESE,116,0.0,3.1,52,0.00,,SCT100,0.00,VWS V14.01,2013-07-15 22:38:00,
2013-07-15 17:43:00,89.6,69.9,30.19,East,100,0.0,4.0,52,0.00,,CLR,0.00,VWS V14.01,2013-07-15 22:43:00,
2013-07-15 17:48:00,88.7,69.1,30.19,East,99,0.0,4.9,52,0.00,,CLR,0.00,VWS V14.01,2013-07-15 22:48:00,
2013-07-15 17:53:00,87.8,68.3,30.19,SSW,198,5.4,5.4,52,0.00,,CLR,0.00,VWS V14.01,2013-07-15 22:53:00,
2013-07-15 17:58:00,87.1,69.5,30.19,SE,140,0.0,4.0,56,0.00,,CLR,0.00,VWS V14.01,2013-07-15 22:58:00,
2013-07-15 18:03:00,86.4,68.8,30.19,SSE,163,0.0,3.1,56,0.00,,CLR,0.00,VWS V14.01,2013-07-15 23:03:00,
2013-07-15 18:08:00,85.5,68.0,30.19,ESE,105,4.0,5.4,56,0.00,,CLR,0.00,VWS V14.01,2013-07-15 23:08:00,
2013-07-15 18:13:00,84.6,67.2,30.19,ESE,117,3.1,5.4,56,0.00,,CLR,0.00,VWS V14.01,2013-07-15 23:13:00,
2013-07-15 18:18:00,83.8,66.5,30.19,SSE,160,0.0,0.0,56,0.00,,CLR,0.00,VWS V14.01,2013-07-15 23:18:00,
2013-07-15 18:24:00,83.7,66.3,30.19,SE,140,0.0,0.0,56,0.00,,CLR,0.00,VWS V14.01,2013-07-15 23:24:00,
2013-07-15 18:29:00,83.5,66.2,30.19,SE,140,2.7,5.4,56,0.00,,CLR,0.00,VWS V14.01,2013-07-15 23:29:00,
2013-07-15 18:34:00,83.1,65.8,30.19,SW,219,0.0,0.0,56,0.00,,CLR,0.00,VWS V14.01,2013-07-15 23:34:00,
2013-07-15 18:39:00,83.1,65.8,30.19,ENE,66,0.0,2.7,56,0.00,,CLR,0.00,VWS V14.01,2013-07-15 23:39:00,
2013-07-15 18:44:00,82.9,65.7,30.19,SE,141,0.0,0.0,56,0.00,,CLR,0.00,VWS V14.01,2013-07-15 23:44:00,
2013-07-15 18:49:00,82.9,65.7,30.19,SE,141,0.0,0.0,56,0.00,,CLR,0.00,VWS V14.01,2013-07-15 23:49:00,
2013-07-15 18:54:00,82.9,65.7,30.19,SE,141,0.0,0.0,56,0.00,,CLR,0.00,VWS V14.01,2013-07-15 23:54:00,
2013-07-15 18:59:00,82.9,65.7,30.19,South,187,0.0,0.0,56,0.00,,CLR,0.00,VWS V14.01,2013-07-15 23:59:00,
2013-07-15 19:05:00,82.9,65.7,30.19,SSE,154,0.0,0.0,56,0.00,,CLR,0.00,VWS V14.01,2013-07-16 00:05:00,
2013-07-15 19:10:00,82.9,65.7,30.19,SE,137,0.0,0.0,56,0.00,,CLR,0.00,VWS V14.01,2013-07-16 00:10:00,
2013-07-15 19:15:00,83.1,65.8,30.19,SE,136,0.0,0.0,56,0.00,,CLR,0.00,VWS V14.01,2013-07-16 00:15:00,
2013-07-15 19:20:00,82.9,65.7,30.19,WSW,238,0.0,0.0,56,0.00,,SCT095,0.00,VWS V14.01,2013-07-16 00:20:00,
2013-07-15 19:26:00,82.8,65.5,30.19,South,191,0.0,0.0,56,0.00,,SCT095,0.00,VWS V14.01,2013-07-16 00:26:00,
2013-07-15 19:31:00,82.6,65.3,30.19,SSE,168,0.0,2.2,56,0.00,,SCT095,0.00,VWS V14.01,2013-07-16 00:31:00,
2013-07-15 19:36:00,82.8,65.5,30.19,SE,140,0.0,0.0,56,0.00,,SCT095,0.00,VWS V14.01,2013-07-16 00:36:00,
2013-07-15 19:41:00,82.6,65.3,30.19,SE,140,0.0,0.0,56,0.00,,SCT095,0.00,VWS V14.01,2013-07-16 00:41:00,
2013-07-15 19:46:00,82.6,65.3,30.19,SE,140,0.0,0.0,56,0.00,,SCT095,0.00,VWS V14.01,2013-07-16 00:46:00,
2013-07-15 19:51:00,82.2,66.7,30.19,SE,140,0.0,0.0,60,0.00,,SCT095,0.00,VWS V14.01,2013-07-16 00:51:00,
2013-07-15 19:57:00,82.4,65.1,30.19,SE,140,0.0,0.0,56,0.00,,SCT095,0.00,VWS V14.01,2013-07-16 00:57:00,
2013-07-15 20:03:00,82.6,65.3,30.19,SSW,198,0.0,0.0,56,0.00,,CLR,0.00,VWS V14.01,2013-07-16 01:03:00,
2013-07-15 20:08:00,82.4,65.1,30.19,SSW,198,0.0,0.0,56,0.00,,CLR,0.00,VWS V14.01,2013-07-16 01:08:00,
2013-07-15 20:13:00,82.0,66.6,30.19,SSW,195,0.0,0.0,60,0.00,,CLR,0.00,VWS V14.01,2013-07-16 01:13:00,
2013-07-15 20:18:00,82.0,66.6,30.19,SSE,158,0.0,0.0,60,0.00,,CLR,0.00,VWS V14.01,2013-07-16 01:18:00,
2013-07-15 20:23:00,81.9,66.4,30.19,SSE,152,0.0,0.0,60,0.00,,CLR,0.00,VWS V14.01,2013-07-16 01:23:00,
2013-07-15 20:28:00,81.7,66.2,30.19,SSE,152,0.0,0.0,60,0.00,,CLR,0.00,VWS V14.01,2013-07-16 01:28:00,
2013-07-15 20:33:00,81.5,66.1,30.19,SSE,152,0.0,0.0,60,0.00,,CLR,0.00,VWS V14.01,2013-07-16 01:33:00,
2013-07-15 20:38:00,81.3,65.9,30.19,SE,124,0.0,0.0,60,0.00,,CLR,0.00,VWS V14.01,2013-07-16 01:38:00,
2013-07-15 20:43:00,81.1,65.7,30.19,SE,124,0.0,0.0,60,0.00,,CLR,0.00,VWS V14.01,2013-07-16 01:43:00,
2013-07-15 20:49:00,81.0,65.5,30.19,ESE,110,0.0,0.0,60,0.00,,CLR,0.00,VWS V14.01,2013-07-16 01:49:00,
2013-07-15 20:54:00,80.8,65.4,30.19,ESE,110,0.0,0.0,60,0.00,,CLR,0.00,VWS V14.01,2013-07-16 01:54:00,
2013-07-15 20:59:00,80.6,65.2,30.19,ESE,106,0.0,0.0,60,0.00,,CLR,0.00,VWS V14.01,2013-07-16 01:59:00,
2013-07-15 21:04:00,80.4,65.0,30.19,ESE,106,0.0,0.0,60,0.00,,CLR,0.00,VWS V14.01,2013-07-16 02:04:00,
2013-07-15 21:10:00,80.1,64.7,30.19,East,86,0.0,0.0,60,0.00,,CLR,0.00,VWS V14.01,2013-07-16 02:10:00,
2013-07-15 21:15:00,79.9,64.5,30.19,ESE,116,0.0,0.0,60,0.00,,CLR,0.00,VWS V14.01,2013-07-16 02:15:00,
2013-07-15 21:20:00,79.9,64.5,30.19,ESE,117,0.0,0.0,60,0.00,,CLR,0.00,VWS V14.01,2013-07-16 02:20:00,
2013-07-15 21:25:00,79.7,64.4,30.19,ESE,102,0.0,0.0,60,0.00,,CLR,0.00,VWS V14.01,2013-07-16 02:25:00,
2013-07-15 21:30:00,79.7,64.4,30.19,ESE,106,0.0,0.0,60,0.00,,CLR,0.00,VWS V14.01,2013-07-16 02:30:00,
2013-07-15 21:35:00,79.5,64.2,30.22,ESE,106,0.0,0.0,60,0.00,,CLR,0.00,VWS V14.01,2013-07-16 02:35:00,
2013-07-15 21:40:00,79.5,64.2,30.22,ESE,120,0.0,0.0,60,0.00,,CLR,0.00,VWS V14.01,2013-07-16 02:40:00,
2013-07-15 21:45:00,79.5,64.2,30.22,East,94,0.0,0.0,60,0.00,,CLR,0.00,VWS V14.01,2013-07-16 02:45:00,
2013-07-15 21:51:00,79.5,64.2,30.22,ESE,104,0.0,0.0,60,0.00,,CLR,0.00,VWS V14.01,2013-07-16 02:51:00,
2013-07-15 21:57:00,79.5,64.2,30.22,East,101,0.0,0.0,60,0.00,,CLR,0.00,VWS V14.01,2013-07-16 02:57:00,
2013-07-15 22:02:00,79.5,64.2,30.22,SE,131,0.0,0.0,60,0.00,,CLR,0.00,VWS V14.01,2013-07-16 03:02:00,
2013-07-15 22:07:00,79.5,64.2,30.22,South,171,0.0,0.0,60,0.00,,CLR,0.00,VWS V14.01,2013-07-16 03:07:00,
2013-07-15 22:12:00,79.5,64.2,30.22,SE,146,0.0,0.0,60,0.00,,CLR,0.00,VWS V14.01,2013-07-16 03:12:00,
2013-07-15 22:17:00,79.7,64.4,30.22,SE,146,0.0,0.0,60,0.00,,CLR,0.00,VWS V14.01,2013-07-16 03:17:00,
2013-07-15 22:22:00,79.5,64.2,30.22,SE,124,0.0,0.0,60,0.00,,CLR,0.00,VWS V14.01,2013-07-16 03:22:00,
2013-07-15 22:27:00,79.5,64.2,30.22,SE,124,0.0,0.0,60,0.00,,CLR,0.00,VWS V14.01,2013-07-16 03:27:00,
2013-07-15 22:33:00,79.3,68.7,30.25,SE,124,0.0,0.0,70,0.00,,CLR,0.00,VWS V14.01,2013-07-16 03:33:00,
2013-07-15 22:38:00,79.3,68.7,30.25,SE,124,0.0,0.0,70,0.00,,CLR,0.00,VWS V14.01,2013-07-16 03:38:00,
2013-07-15 22:43:00,79.2,68.5,30.25,SE,136,0.0,0.0,70,0.00,,CLR,0.00,VWS V14.01,2013-07-16 03:43:00,
2013-07-15 22:48:00,79.2,68.5,30.22,SE,140,0.0,0.0,70,0.00,,CLR,0.00,VWS V14.01,2013-07-16 03:48:00,
2013-07-15 22:54:00,79.2,68.5,30.22,SE,140,0.0,0.0,70,0.00,,CLR,0.00,VWS V14.01,2013-07-16 03:54:00,
2013-07-15 22:59:00,79.2,68.5,30.22,SE,140,0.0,0.0,70,0.00,,CLR,0.00,VWS V14.01,2013-07-16 03:59:00,
2013-07-15 23:01:00,79.2,68.5,30.25,SE,140,0.0,0.0,70,0.00,,CLR,0.00,VWS V14.01,2013-07-16 04:01:00,
2013-07-15 23:02:00,79.2,68.5,30.25,SE,141,0.0,0.0,70,0.00,,CLR,0.00,VWS V14.01,2013-07-16 04:02:00,
2013-07-15 23:07:00,79.2,68.5,30.25,SE,141,0.0,0.0,70,0.00,,CLR,0.00,VWS V14.01,2013-07-16 04:07:00,
2013-07-15 23:12:00,79.2,68.5,30.25,SE,141,0.0,0.0,70,0.00,,CLR,0.00,VWS V14.01,2013-07-16 04:12:00,
2013-07-15 23:17:00,79.0,68.4,30.25,SE,141,0.0,0.0,70,0.00,,CLR,0.00,VWS V14.01,2013-07-16 04:17:00,
2013-07-15 23:23:00,79.0,68.4,30.25,SE,141,0.0,0.0,70,0.00,,CLR,0.00,VWS V14.01,2013-07-16 04:23:00,
2013-07-15 23:28:00,78.8,68.2,30.25,SSE,164,0.0,0.0,70,0.00,,CLR,0.00,VWS V14.01,2013-07-16 04:28:00,
2013-07-15 23:33:00,78.8,68.2,30.22,SE,145,0.0,0.0,70,0.00,,CLR,0.00,VWS V14.01,2013-07-16 04:33:00,
2013-07-15 23:38:00,78.8,68.2,30.22,SE,145,0.0,0.0,70,0.00,,CLR,0.00,VWS V14.01,2013-07-16 04:38:00,
2013-07-15 23:43:00,78.8,68.2,30.22,SE,144,0.0,0.0,70,0.00,,CLR,0.00,VWS V14.01,2013-07-16 04:43:00,
2013-07-15 23:48:00,78.8,68.2,30.25,South,173,0.0,0.0,70,0.00,,CLR,0.00,VWS V14.01,2013-07-16 04:48:00,
2013-07-15 23:53:00,78.6,68.0,30.25,SSE,156,0.0,3.6,70,0.00,,CLR,0.00,VWS V14.01,2013-07-16 04:53:00,
2013-07-15 23:58:00,78.6,68.0,30.25,SSE,168,0.0,0.0,70,0.00,,CLR,0.00,VWS V14.01,2013-07-16 04:58:00,